This is the latest recevied weather packets stored in our database for station/object W6MAF. If no packets are shown the sender has not sent any weather packets the latest 10 day(s).
| Time | Temp. | Humidity | Pressure | Rain* | Wind** | Luminosity | Snow |
|---|---|---|---|---|---|---|---|
| 1787862885 | 37.22° C | 3% | - | 0 mm | 2.68 m/s, 294° | - | - |
| 1787862584 | 37.78° C | 3% | - | 0 mm | 0.89 m/s, 316° | - | - |
| 1787862286 | 38.33° C | 3% | - | 0 mm | 3.58 m/s, 283° | - | - |
| 1787861989 | 38.33° C | 3% | - | 0 mm | 1.79 m/s, 346° | - | - |
| 1787861393 | 38.33° C | 3% | - | 0 mm | 1.79 m/s, 245° | - | - |
| 1787861095 | 38.33° C | 3% | - | 0 mm | 1.79 m/s, 284° | - | - |
| 1787860794 | 38.33° C | 3% | - | 0 mm | 2.68 m/s, 238° | - | - |
| 1787860496 | 37.78° C | 3% | - | 0 mm | 1.34 m/s, 267° | - | - |
| 1787860198 | 37.78° C | 3% | - | 0 mm | 1.79 m/s, 255° | - | - |
| 1787859901 | 37.78° C | 3% | - | 0 mm | 2.68 m/s, 253° | - | - |
| 1787859603 | 37.22° C | 3% | - | 0 mm | 0 m/s | - | - |
| 1787859305 | 37.22° C | 3% | - | 0 mm | 0 m/s | - | - |
| 1787859005 | 37.22° C | 2% | - | 0 mm | 1.79 m/s, 330° | - | - |
| 1787858706 | 36.67° C | 3% | - | 0 mm | 0.89 m/s, 270° | - | - |
| 1787858409 | 36.67° C | 2% | - | 0 mm | 0.89 m/s, 349° | - | - |
| 1787858111 | 36.11° C | 3% | - | 0 mm | 1.34 m/s, 322° | - | - |
| 1787857813 | 36.11° C | 3% | - | 0 mm | 1.79 m/s, 249° | - | - |
| 1787857515 | 35.56° C | 4% | - | 0 mm | 0 m/s | - | - |
| 1787857214 | 35.56° C | 4% | - | 0 mm | 0 m/s | - | - |
| 1787856916 | 35° C | 4% | - | 0 mm | 2.68 m/s, 305° | - | - |
| 1787856619 | 35° C | 5% | - | 0 mm | 3.58 m/s, 271° | - | - |
| 1787856321 | 35° C | 4% | - | 0 mm | 2.24 m/s, 243° | - | - |
| 1787856023 | 35° C | 4% | - | 0 mm | 2.68 m/s, 240° | - | - |
| 1787855725 | 35° C | 4% | - | 0 mm | 4.02 m/s, 219° | - | - |
| 1787855424 | 35° C | 4% | - | 0 mm | 1.79 m/s, 243° | - | - |
* Rain latest hour (hover to see other rain measurements)
** Current wind speed in m/s (hover to see current wind gust speed)